Windsor, Ontario

12:54 PM EST on February 21, 2017 (GMT -0500)
Windsor

Weather History for CYQG - December, 2012

Change the Weather History Date:

Friday, December 7, 2012

  Actual Average Record
Temperature  
Mean Temperature 38 °F -  
Max Temperature 42 °F 34 °F 60 °F (1998)
Min Temperature 33 °F 21 °F 12 °F (2005)
Degree Days  
Heating Degree Days 28    
Moisture  
Dew Point 38 °F    
Average Humidity 92    
Maximum Humidity 100    
Minimum Humidity 81    
Precipitation  
Precipitation 0.04 in 0.10 in - ()
Sea Level Pressure  
Sea Level Pressure 29.96 in    
Wind  
Wind Speed 3 mph ()    
Max Wind Speed 7 mph    
Max Gust Speed -    
Visibility 5.6 miles    
Events Rain    
Averages and records for this station are not official NWS values.
T = Trace of Precipitation, MM = Missing Value Source: Averaged Metar Reports

Daily Weather History Graph

Daily Weather History Graph

Search for Another Location

Airport or City:

Trip Planner

Search our weather history database for the weather conditions in past years. The results will help you decide how hot, cold, wet, or windy it might be!

Date:

Astronomy

Dec. 07, 2012 Rise Set
Actual Time 7:47 AM EST 4:59 PM EST
Civil Twilight 7:15 AM EST 5:31 PM EST
Nautical Twilight 6:40 AM EST 6:06 PM EST
Astronomical Twilight 6:06 AM EST 6:40 PM EST
Moon 12:59 AM EST (12/7) 1:01 PM EST (12/7)
Length of Visible Light 10h 15m
Length of Day
9h 11m
Last Quarter, 39% of the Moon is Illuminated
Dec 7
Last Quarter
Dec 13
New
Dec 20
First Quarter
Dec 28
Full
Jan 4
Last Quarter

Hourly Weather History & Observations

Time (EST) Temp. Windchill Dew Point Humidity Pressure Visibility Wind Dir Wind Speed Gust Speed Precip Events Conditions
12:00 AM 35.6 °F 31.7 °F 32.0 °F 87% 30.00 in 15.0 mi SSW 4.6 mph - N/A   Mostly Cloudy
1:00 AM 37 °F - 33 °F 82% 29.98 in 15 mi South 2.3 mph - -   Overcast
1:00 AM 37.4 °F - 33.8 °F 87% 29.98 in 15.0 mi SSW 2.3 mph - N/A   Overcast
2:00 AM 39.2 °F - 33.8 °F 81% 29.97 in 15.0 mi SSW 2.3 mph - N/A   Overcast
3:00 AM 39.2 °F 35.9 °F 33.8 °F 81% 29.97 in 15.0 mi WSW 4.6 mph - N/A   Overcast
4:00 AM 39.2 °F 35.9 °F 33.8 °F 81% 29.96 in 15.0 mi SSW 4.6 mph - N/A   Overcast
5:00 AM 39.2 °F 35.9 °F 35.6 °F 87% 29.95 in 15.0 mi SSW 4.6 mph - N/A   Overcast
6:00 AM 39.2 °F 37.0 °F 35.6 °F 87% 29.96 in 15.0 mi SW 3.5 mph - N/A   Overcast
7:00 AM 39 °F - 35 °F 82% 29.97 in 12 mi SW 3.5 mph - - Rain Light Rain
7:00 AM 39.2 °F - 35.6 °F 87% 29.97 in 12.0 mi WSW 2.3 mph - N/A Rain Light Rain
8:00 AM 39.2 °F 35.9 °F 35.6 °F 87% 29.98 in 6.0 mi SSW 4.6 mph - N/A Rain Light Rain
9:00 AM 39.2 °F 37.0 °F 37.4 °F 93% 29.99 in 6.0 mi SSW 3.5 mph - N/A Rain Light Rain
10:00 AM 39.2 °F 37.0 °F 37.4 °F 93% 29.98 in 5.0 mi SW 3.5 mph - N/A Rain Light Rain
11:00 AM 39.2 °F 34.2 °F 37.4 °F 93% 29.99 in 5.0 mi WSW 6.9 mph - N/A Rain Light Rain
12:00 PM 41.0 °F 39.0 °F 39.2 °F 93% 29.97 in 4.0 mi West 3.5 mph - N/A   Overcast
1:00 PM 41 °F - 40 °F 96% 29.95 in 3 mi WNW 4.6 mph - - Rain Light Rain
1:00 PM 41.0 °F 38.0 °F 41.0 °F 100% 29.95 in 3.0 mi WNW 4.6 mph - N/A Rain Light Rain
2:00 PM 41.0 °F 37.1 °F 41.0 °F 100% 29.94 in 1.5 mi South 5.8 mph - N/A   Overcast
2:29 PM - - - N/A% - 1.0 mi SSW 2.3 mph - N/A   Overcast
2:39 PM - - - N/A% - 1.0 mi SSW 2.3 mph - N/A   Overcast
3:00 PM 42.8 °F - 41.0 °F 93% 29.93 in 1.0 mi Calm Calm - N/A   Overcast
3:37 PM - - - N/A% - 1.5 mi West 2.3 mph - N/A   Overcast
4:00 PM 42.8 °F - 41.0 °F 93% 29.94 in 1.5 mi Calm Calm - N/A   Overcast
5:00 PM 42.8 °F - 41.0 °F 93% 29.94 in 1.8 mi Calm Calm - N/A   Overcast
5:26 PM - - - N/A% - 2.5 mi Calm Calm - N/A Rain Light Rain Showers
6:00 PM 41.0 °F - 41.0 °F 100% 29.94 in 2.0 mi Calm Calm - N/A Rain Light Rain Showers
6:22 PM - - - N/A% - 2.0 mi Calm Calm - N/A Rain Light Rain Showers
7:00 PM 42 °F - 41 °F 97% 29.95 in 2 mi NE 3.5 mph - - Rain Light Rain Showers
7:00 PM 41.0 °F 39.0 °F 41.0 °F 100% 29.95 in 2.0 mi NE 3.5 mph - N/A Rain Light Rain Showers
7:08 PM - - - N/A% - 1.5 mi ENE 4.6 mph - N/A Rain Light Rain Showers
8:00 PM 41.0 °F 38.0 °F 41.0 °F 100% 29.95 in 1.0 mi NE 4.6 mph - N/A Rain Light Rain Showers
9:00 PM 41.0 °F 37.1 °F 41.0 °F 100% 29.94 in 1.0 mi ENE 5.8 mph - N/A Rain Light Rain
9:25 PM - - - N/A% - 0.8 mi East 5.8 mph - N/A Rain Light Rain
10:00 PM 41.0 °F 39.0 °F 41.0 °F 100% 29.93 in 1.0 mi East 3.5 mph - N/A   Light Drizzle
10:50 PM - - - N/A% - 0.8 mi ENE 3.5 mph - N/A   Light Drizzle
11:00 PM 41.0 °F 38.0 °F 41.0 °F 100% 29.92 in 0.8 mi East 4.6 mph - N/A   Light Drizzle